This is the latest recevied weather packets stored in our database for station/object IW5CTE-13. If no packets are shown the sender has not sent any weather packets the latest 10 day(s).
| Time | Temp. | Humidity | Pressure | Rain* | Wind** | Luminosity | Snow |
|---|---|---|---|---|---|---|---|
| 1777858653 | 15.56° C | 86% | 1019.7 hPa | - | - | - | - |
| 1777858052 | 15.56° C | 86% | 1019.7 hPa | - | - | - | - |
| 1777857453 | 15.56° C | 88% | 1019.7 hPa | - | - | - | - |
| 1777856853 | 15.56° C | 88% | 1019.8 hPa | - | - | - | - |
| 1777856252 | 15.56° C | 88% | 1019.7 hPa | - | - | - | - |
| 1777855652 | 15.56° C | 90% | 1019.7 hPa | - | - | - | - |
| 1777855052 | 16.11° C | 88% | 1019.9 hPa | - | - | - | - |
| 1777854452 | 16.11° C | 87% | 1019.7 hPa | - | - | - | - |
| 1777853852 | 16.11° C | 89% | 1019.9 hPa | - | - | - | - |
| 1777853252 | 16.11° C | 91% | 1019.8 hPa | - | - | - | - |
| 1777852652 | 16.11° C | 90% | 1019.8 hPa | - | - | - | - |
| 1777852052 | 16.11° C | 91% | 1019.9 hPa | - | - | - | - |
| 1777851453 | 16.11° C | 92% | 1019.9 hPa | - | - | - | - |
| 1777850852 | 16.11° C | 93% | 1020 hPa | - | - | - | - |
| 1777850252 | 16.11° C | 92% | 1020.1 hPa | - | - | - | - |
| 1777849652 | 16.11° C | 89% | 1020.1 hPa | - | - | - | - |
| 1777849052 | 16.11° C | 90% | 1020.2 hPa | - | - | - | - |
| 1777848453 | 16.11° C | 91% | 1020.2 hPa | - | - | - | - |
| 1777847852 | 16.11° C | 90% | 1020.2 hPa | - | - | - | - |
| 1777847253 | 16.11° C | 91% | 1020.3 hPa | - | - | - | - |
| 1777846652 | 16.11° C | 89% | 1020.4 hPa | - | - | - | - |
| 1777846052 | 16.67° C | 87% | 1020.3 hPa | - | - | - | - |
| 1777845452 | 16.67° C | 89% | 1020.4 hPa | - | - | - | - |
| 1777844852 | 16.67° C | 88% | 1020.4 hPa | - | - | - | - |
| 1777844252 | 16.67° C | 86% | 1020.4 hPa | - | - | - | - |
* Rain since midnight (hover to see other rain measurements)
** Current wind speed in m/s (hover to see current wind gust speed)